Lexington Weather

Lexington, Massachusetts, USA

76°F
9/22/2021 12:41pm 
  • Lexington Conditions: Overcast
  • Temperature: 75.6°F / 24.2°CWarmer 0.8°F than last hour.
  • Dew Point: 68.9°FDecreased 0.4°Fsince last hour.
  • Relative Humidity: 80%Decreased 3.0% since last hour.
  • Wind: Wind from SSW SSW 4 mph, 10-min avg: 3 mph, gust: 12 mph
  • Barometer: 30.11 inFalling 0.02  inHg/hr Falling Slowly
  • Visibility: 10 miles
  • Rain Today: 0.00 in
  •   

Regional Weather Roundup
for Boston / Norton, MA

        
000
ASUS41 KBOX 221204
RWRBOX

REGIONAL WEATHER ROUNDUP
NATIONAL WEATHER SERVICE BOSTON/NORTON MA
800 AM EDT WED SEP 22 2021

NOTE:  "FAIR" INDICATES FEW OR NO CLOUDS BELOW 12,000 FEET WITH NO 
SIGNIFICANT WEATHER AND/OR OBSTRUCTIONS TO VISIBILITY.

MAZALL-221300-
EASTERN MASSACHUSETTS
  
CITY           SKY/WX    TMP DP  RH WIND       PRES   REMARKS
BOSTON         PTSUNNY   70  65  84 SE5       30.23S                  
6HR MIN TEMP:  66; 6HR MAX TEMP:  70;                                

BEVERLY        SUNNY     68  66  93 S7        30.22F                  
LAWRENCE       MOSUNNY   68  65  90 VRB5      30.24S                  
BEDFORD        PTSUNNY   70  67  90 S7        30.21S                  
BLUE HILL      NOT AVBL                                               
NORWOOD        CLOUDY    70  66  87 S10       30.22S                  
MARSHFIELD     PTSUNNY   68  66  94 SE7       30.23S                  
PLYMOUTH       PTSUNNY   69  65  86 SE5       30.24S                  
TAUNTON        MOSUNNY   70  66  87 SE6       30.22F                  
NEW BEDFORD    PTSUNNY   71  67  87 SE9       30.22S                  
$$

MAZALL-221300-
CAPE COD AND THE ISLANDS
  
CITY           SKY/WX    TMP DP  RH WIND       PRES   REMARKS
FALMOUTH       MOSUNNY   70  66  88 SE8       30.25S                  
HYANNIS        MOSUNNY   69  65  86 SE7       30.24S                  
CHATHAM        MOSUNNY   68  62  81 SE6       30.27R                  
PROVINCETOWN   MOSUNNY   69  64  84 S10       30.25S                  
NANTUCKET      SUNNY     69  64  84 SE13      30.25S                  
MARTHAS VNYRD  MOSUNNY   71  68  90 SE12      30.23F                  
$$
 
MAZALL-221300-
CENTRAL AND WESTERN MASSACHUSETTS
  
CITY           SKY/WX    TMP DP  RH WIND       PRES   REMARKS
WORCESTER      CLOUDY    67  66  97 S8        30.23F                  
6HR MIN TEMP:  64; 6HR MAX TEMP:  67;                                

FITCHBURG      CLOUDY    67  65  93 SE5       30.22F                  
ORANGE         CLOUDY    67  65  93 CALM      30.21F                  
SPRINGFIELD    PTSUNNY   66  66 100 CALM      30.18S                  
WESTFIELD      CLOUDY    64  64 100 N5        30.19S FOG              
NORTH ADAMS    CLOUDY    70  64  81 VRB7      30.17S                  
PITTSFIELD     CLOUDY    67  64  90 VRB5      30.18S                  
$$
 
RIZALL-221300-
RHODE ISLAND
  
CITY           SKY/WX    TMP DP  RH WIND       PRES   REMARKS
PROVIDENCE     PTSUNNY   72  69  90 S6        30.22S                  
6HR MIN TEMP:  69; 6HR MAX TEMP:  72;                                

NEWPORT        PTSUNNY   69  68  96 SE9       30.21F                  
BLOCK ISLAND   PTSUNNY   71  67  87 SE13      30.21S                  
SMITHFIELD     CLOUDY    68  67  96 VRB5      30.23S                  
WESTERLY       CLOUDY    70  69  97 SE8       30.20S                  
$$
 
CTZALL-221300-
CONNECTICUT
  
CITY           SKY/WX    TMP DP  RH WIND       PRES   REMARKS
BRADLEY INTL   CLOUDY    65  64  97 N3        30.18F FOG              
6HR MIN TEMP:  63; 6HR MAX TEMP:  65; 6HR PCP:  0.02;                

HARTFORD       CLOUDY    69  64  84 CALM      30.17F                  
BRIDGEPORT     CLOUDY    73  70  90 SE7       30.16S                  
DANBURY        CLOUDY    73  68  84 VRB5      30.18S                  
GROTON         CLOUDY    71  68  90 SE9       30.19S                  
NEW HAVEN      CLOUDY    75  71  87 SE9       30.17S                  
CHESTER        CLOUDY    70  70 100 VRB3      30.19F FOG              
MERIDEN        CLOUDY    69  66  90 CALM      30.17F                  
WILLIMANTIC    CLOUDY    69  67  93 SE5       30.20S                  
OXFORD         CLOUDY    69  69 100 SE12      30.19S FOG              
$$

MEZ002-015-021-024-NHZ003-005-008-011-012-014-VTZ005-008-221300-
NORTHERN NEW ENGLAND
  
CITY           SKY/WX    TMP DP  RH WIND       PRES   REMARKS
PORTLAND ME    CLOUDY    65  64  97 S5        30.24F                  
6HR MIN TEMP:  63; 6HR MAX TEMP:  65;                                

BANGOR ME      CLOUDY    63  62  97 S6        30.26S                  
CONCORD NH     CLOUDY    63  63 100 CALM      30.22S FOG              
MANCHESTER NH  PTSUNNY   70  65  84 S8        30.20S                  
NASHUA NH      CLOUDY    66  66 100 CALM      30.22F                  
PORTSMOUTH NH  PTSUNNY   66  64  94 CALM      30.24R FOG              
JAFFREY NH     CLOUDY    69  67  93 S6        30.23S                  
KEENE NH       CLOUDY    63  61  93 CALM      30.20F                  
BURLINGTON VT  PTSUNNY   66  59  78 S7        30.13S                  
MT. WASHINGTON NOT AVBL                                               
$$

NYZ052-076-221300-
EASTERN NEW YORK
  
CITY           SKY/WX    TMP DP  RH WIND       PRES   REMARKS
ALBANY         DRIZZLE   64  64 100 SE3       30.13F                  
6HR MIN TEMP:  62; 6HR MAX TEMP:  64; 6HR PCP: TRACE;                

NEW YORK CITY  CLOUDY    74  69  85 SE12      30.13F                  
6HR MIN TEMP:  73; 6HR MAX TEMP:  74;                                

$$
 
ANZALL-221300-
MARINE OBSERVATIONS
  
STATION/POSITION TIME  TEMP    WIND        PRES    VSBY  WAVE
                       AIR SEA DIR/SP/G                  HT/PER
                 (UTC) (F)     (DEG/KT/KT) (MB)    (MI)  (FT/S)
BOSTON BUOY      1140      65  150/  8/ 10 1024.3F
BUZZARDS BAY     1100          130/ 14/ 15 1024.3S
NANTUCKET SOUND  1140   70 71  130/ 14/ 16 1024.1R
MASS BAY-STELLWA 1104   66     170/ 14/ 16 1023.4F  1 7/8  2/ 5
ISLE OF SHOALS   1100   66     170/ 12/ 13 1023.2F
S OF BLOCK IS    1126      70                N/A           4/ 6
$$

......................KEY.........................
  SKY/WX - SKY CONDITION/PRESENT WEATHER
  TMP    - TEMPERATURE IN FAHRENHEIT
  DWPT   - DEWPOINT IN FAHRENHEIT
  RH     - RELATIVE HUMIDITY IN PERCENT
  WIND   - DIRECTION AND SPEED IN MPH
  PRES   - MEAN SEA LEVEL PRESSURE IN INCHES OF HG
  WCI    - WIND CHILL INDEX
  VSB    - VISIBILITY IN MILES
  HX     - HEAT INDEX
  TC     - TEMPERATURE IN CELSIUS
  VRB    - VARIABLE WIND DIRECTION
  N/A    - NOT AVAILABLE
  
      

Other recent Regional Weather Roundups

Wed Sep 22, 12:05pm

Wed Sep 22, 11:04am

Wed Sep 22, 10:04am

Wed Sep 22, 9:04am

Wed Sep 22, 7:04am

Wed Sep 22, 6:04am

Wed Sep 22, 5:04am

Wed Sep 22, 4:04am

Wed Sep 22, 3:04am

Wed Sep 22, 2:04am

Wed Sep 22, 1:04am

Wed Sep 22, 12:04am

Tue Sep 21, 11:04pm

Tue Sep 21, 10:04pm

Tue Sep 21, 9:04pm

Tue Sep 21, 8:04pm

Tue Sep 21, 7:04pm

Tue Sep 21, 6:04pm

Tue Sep 21, 5:04pm

Tue Sep 21, 4:04pm

Tue Sep 21, 3:04pm

Tue Sep 21, 2:04pm

Tue Sep 21, 1:04pm

Tue Sep 21, 12:04pm

Tue Sep 21, 11:04am

Tue Sep 21, 10:04am

Tue Sep 21, 9:04am

Tue Sep 21, 8:04am

Tue Sep 21, 7:04am

Tue Sep 21, 6:04am

Tue Sep 21, 5:04am

Tue Sep 21, 4:04am

Tue Sep 21, 3:04am

Tue Sep 21, 2:04am

Tue Sep 21, 1:04am

Tue Sep 21, 12:04am

Mon Sep 20, 11:04pm

Mon Sep 20, 10:04pm

Mon Sep 20, 9:04pm

Mon Sep 20, 8:04pm

Mon Sep 20, 7:04pm

Mon Sep 20, 6:04pm

Mon Sep 20, 5:04pm

Mon Sep 20, 4:04pm

Mon Sep 20, 3:04pm

Mon Sep 20, 2:04pm

Mon Sep 20, 1:04pm

Mon Sep 20, 12:04pm

Mon Sep 20, 11:04am

Mon Sep 20, 10:04am

Mon Sep 20, 9:04am

Mon Sep 20, 7:04am

Mon Sep 20, 6:04am

Mon Sep 20, 5:04am

Mon Sep 20, 4:04am

Mon Sep 20, 3:04am

Mon Sep 20, 2:04am

Mon Sep 20, 1:04am

Mon Sep 20, 12:04am

Sun Sep 19, 11:04pm

Sun Sep 19, 10:04pm

Sun Sep 19, 9:04pm

Sun Sep 19, 8:04pm

Sun Sep 19, 7:04pm

Sun Sep 19, 6:04pm

Sun Sep 19, 5:04pm

Sun Sep 19, 4:04pm

Sun Sep 19, 3:04pm

Sun Sep 19, 2:05pm

Sun Sep 19, 1:04pm

Sun Sep 19, 12:04pm

Sun Sep 19, 11:04am

Sun Sep 19, 10:05am

Sun Sep 19, 9:04am

Sun Sep 19, 8:04am

Sun Sep 19, 7:04am

Sun Sep 19, 6:04am

Sun Sep 19, 5:04am

Sun Sep 19, 4:04am

Sun Sep 19, 3:04am

Sun Sep 19, 2:04am

Sun Sep 19, 1:04am

Sun Sep 19, 12:04am

Sat Sep 18, 11:05pm

Sat Sep 18, 10:04pm

Sat Sep 18, 9:04pm

Sat Sep 18, 8:04pm

Sat Sep 18, 7:04pm

Sat Sep 18, 6:04pm

Sat Sep 18, 5:04pm

Sat Sep 18, 4:04pm

Sat Sep 18, 3:04pm

Sat Sep 18, 2:04pm

Sat Sep 18, 1:04pm

Sat Sep 18, 12:04pm

Sat Sep 18, 11:04am

Sat Sep 18, 10:04am

Sat Sep 18, 9:04am

Sat Sep 18, 8:04am

Sat Sep 18, 7:04am

Sat Sep 18, 6:04am

Sat Sep 18, 5:04am

Sat Sep 18, 4:04am

Sat Sep 18, 3:04am

Sat Sep 18, 2:04am

Sat Sep 18, 1:04am

Sat Sep 18, 12:04am

Fri Sep 17, 11:04pm

Fri Sep 17, 10:04pm

Fri Sep 17, 9:04pm

Fri Sep 17, 8:04pm

Fri Sep 17, 7:04pm

Fri Sep 17, 6:04pm

Fri Sep 17, 5:04pm

Fri Sep 17, 4:04pm

Fri Sep 17, 3:04pm

Fri Sep 17, 2:04pm

Fri Sep 17, 1:04pm

Fri Sep 17, 12:05pm

Fri Sep 17, 11:04am

Fri Sep 17, 10:04am

Fri Sep 17, 9:04am

Fri Sep 17, 8:04am

Fri Sep 17, 7:04am

Fri Sep 17, 6:04am

Fri Sep 17, 5:04am

Fri Sep 17, 4:04am

Fri Sep 17, 3:04am

Fri Sep 17, 2:04am

Fri Sep 17, 1:04am

Fri Sep 17, 12:04am

Thu Sep 16, 11:04pm

Thu Sep 16, 10:04pm

Thu Sep 16, 9:04pm

Thu Sep 16, 8:04pm

Thu Sep 16, 7:04pm

Thu Sep 16, 6:04pm

Thu Sep 16, 5:04pm

Thu Sep 16, 4:04pm

Thu Sep 16, 3:04pm

Thu Sep 16, 2:04pm

Thu Sep 16, 1:05pm

Thu Sep 16, 12:04pm

Thu Sep 16, 11:05am

Thu Sep 16, 10:05am

Thu Sep 16, 9:04am

Thu Sep 16, 8:04am

Thu Sep 16, 7:04am

Thu Sep 16, 6:04am

Thu Sep 16, 5:04am

Thu Sep 16, 4:04am

Thu Sep 16, 3:04am

Thu Sep 16, 2:04am

Thu Sep 16, 1:04am

Thu Sep 16, 12:04am

Wed Sep 15, 11:04pm

Wed Sep 15, 10:04pm

Wed Sep 15, 9:04pm

Wed Sep 15, 8:04pm

Wed Sep 15, 7:04pm

Wed Sep 15, 6:04pm

Wed Sep 15, 5:05pm

Wed Sep 15, 4:04pm

Wed Sep 15, 3:04pm

Wed Sep 15, 2:04pm

Wed Sep 15, 1:04pm

Meta data:

ID: 1b6b5ab7-603e-44ca-9856-b0a4c4b37eb7
Link: https://api.weather.gov/products/1b6b5ab7-603e-44ca-9856-b0a4c4b37eb7